SCP
0 0 0 0 0 0 0 0 0 0 0 0 0 0 0 0 0 0 0 0 0 0 0 0 0 0 0 0 0 0 0 0 0 0 0 0 0 0 0 0 0 0 0 0
0 0 0 0 0 0 0 0 0 0 0 0 0 0 0 0 0 0 0 0 0 -0 0 -0 0 0 -0 0 0 0 0 0 0 0 0 0 0 0 0 0 0 0 0 0
0 0 0 0 0 0 0 0 0 0 0 0 0 0 0 0 0 -0 0 -0 0 -0 0 0 -0 0 -0 0 0 0 0 0 0 0 0 0 0 0 0 0 0 0 0 0
0 0 0 0 0 0 0 0 0 0 0 0 0 0 -0 -0 0 0 0 -0 0 0 0 0 0 0 0 0 0 0 0 0 0 0 0 0 0 0 0 0 0 0 0 0
0 0 0 0 0 0 0 0 0 0 0 0 0 0 -0 -0 0 0 0 0 0 0 0 0 0 0 0 0 0 0 0 0 0 0 0 0 0 0 0 0 0 0 0 0
0 0 0 0 0 0 0 0 0 0 0 0 0 0 0 0 0 0 0 0 0 0 0 0 0 0 0 0 0 0 0 0 0 0 0 0 0 0 0 0 0 0 0 0
0 0 0 0 0 0 0 0 0 0 0 0 0 0 0 0 0 0 0 0 0 0 0 0 0 0 0 0 0 0 0 0 0 0 0 0 0 0 0 0 0 0 0 0
0 0 0 0 0 0 0 0 0 0 0 0 0 0 0 0 0 0 0 0 0 0 0 0 0 0 0 0 0 0 0 0 0 0 0 0 0 0 0 0 0 0 0 0
0 0 0 0 0 0 0 0 0 0 0 0 0 0 0 0 0 0 0 0 0 0 0 0 0 0 0 0 0 0 0 0 0 0 0 0 0 0 0 0 0 0 0 0
0 0 0 0 0 0 0 0 0 0 0 0 0 0 0 0 0 0 0 0 0 0 0 0 0 0 0 0 0 0 0 0 0 0 0 0 0 0 0 0 0 0 0 0
0 0 0 0 0 0 0 0 0 -0 0 0 0 0 0 0 0 0 0 0 0 0 0 0 0 0 0 0 0 0 0 0 0 0 0 0 0 0 0 0 0 0 0 0
0 0 0 0 0 0 0 0 0 0 0 0 0 0 0 0 0 0 0 0 0 0 0 0 0 0 0 0 0 0 0 0 0 0 0 0 0 0 0 0 0 0 0 0
1 0 0 0 0 0 0 0 0 0 0 0 0 0 0 0 0 0 0 0 0 0 0 0 0 0 0 0 0 0 0 0 0 0 0 0 0 0 0 0 0 0 0 0
0 0 0 0 0 0 0 0 0 0 0 0 0 0 0 0 0 0 0 0 0 0 0 0 0 0 0 0 0 0 0 0 0 0 0 0 0 0 0 0 0 0 0 0
0 0 0 0 0 0 0 0 0 0 0 0 0 0 0 0 0 0 0 0 0 0 0 0 0 0 0 0 0 0 0 0 0 0 0 0 0 0 0 0 0 0 0 0
0 0 0 0 0 0 0 0 0 0 0 0 0 0 0 0 0 0 0 0 0 0 0 0 0 0 0 0 0 0 0 0 0 0 0 0 0 0 0 0 0 0 0 0
0 0 0 0 0 0 0 0 0 0 0 0 0 0 0 0 0 0 0 0 0 0 0 0 0 0 0 0 0 0 0 0 0 0 0 0 0 0 0 0 0 0 0 0
0 0 0 0 0 0 0 0 0 0 0 0 0 0 0 0 0 0 0 0 0 0 0 0 0 0 0 0 0 0 0 0 0 0 0 0 0 0 0 0 0 0 0 0
0 0 0 0 0 0 0 0 0 0 0 0 0 0 0 0 0 0 0 0 0 0 0 0 0 0 0 0 0 0 0 0 0 0 0 0 0 0 0 0 0 0 0 0
0 0 0 0 0 0 0 0 0 0 0 0 0 0 0 0 0 0 0 0 0 0 0 0 0 0 0 0 0 0 0 0 0 0 0 0 0 0 0 0 0 0 0 0
0 0 0 0 0 0 0 0 0 0 0 0 0 0 0 0 0 0 0 0 0 0 0 0 0 0 0 0 0 0 0 0 0 0 0 0 0 0 0 0 0 0 0 0
0 0 0 0 0 0 0 0 0 0 0 0 0 0 0 0 0 0 0 0 0 0 0 0 0 0 0 0 0 0 0 0 0 0 0 0 0 0 0 0 0 0 0 0
0 0 0 0 0 0 0 0 0 0 0 0 0 0 0 0 0 0 0 0 0 0 0 0 0 0 0 0 0 0 0 0 0 0 0 0 0 0 0 0 0 0 0 0
0 0 0 0 0 0 0 0 0 0 0 0 0 0 0 0 0 0 0 0 0 0 0 0 0 0 0 0 0 0 0 0 0 0 0 0 0 0 0 0 0 0 0 0
0 0 0 0 0 0 0 0 0 0 0 0 0 0 0 0 0 0 0 0 0 0 0 0 0 0 0 0 0 0 0 0 0 0 0 0 0 0 0 0 0 0 0 0
0 0 0 0 0 0 0 0 0 0 0 0 0 0 0 0 0 0 0 0 0 0 0 0 0 0 0 0 0 0 0 0 0 0 0 0 0 0 0 0 0 0 0 0
0 0 0 0 0 0 0 0 0 0 0 0 0 0 0 0 0 0 0 0 0 0 0 0 0 0 0 0 0 0 0 0 0 0 0 0 0 0 0 0 0 0 0 0
Wind_Speed_500mb
17 24 27 27 30 7 7 10 8 2 10 11 12 10 16 12 18 29 37 44 39 34 30 14 13 17 22 23 20 20 17 11 14 8 13 19 24 28 33 37 38 36 36 36
16 28 30 31 13 15 8 12 16 15 12 13 22 19 19 22 17 24 25 32 37 19 19 11 10 19 17 24 19 11 15 3 6 13 17 23 24 27 29 33 36 36 44 49
11 18 25 16 5 12 13 15 6 5 12 20 12 13 12 25 29 29 25 31 20 3 16 6 4 10 11 4 6 9 9 8 15 12 14 19 27 30 32 34 37 43 48 46
9 14 12 6 12 12 19 20 16 14 13 19 21 14 20 24 23 28 26 25 21 4 16 11 15 16 12 14 13 12 17 20 17 21 22 24 23 30 36 41 43 43 43 42
5 7 11 10 10 13 12 15 17 20 17 26 24 15 21 27 24 12 11 17 18 18 34 37 32 23 20 16 14 17 17 15 19 26 33 37 41 43 42 42 42 40 45 49
5 6 9 6 20 24 10 6 29 37 26 34 39 10 11 29 20 36 29 50 53 46 36 29 20 19 21 23 22 18 17 20 24 30 34 30 31 38 41 41 38 42 42 37
13 10 9 24 14 31 10 10 34 36 43 49 17 20 39 51 42 33 28 33 30 27 23 15 19 23 22 23 21 19 21 26 28 29 28 29 33 38 40 35 30 29 28 35
9 1 10 20 8 20 8 38 37 33 35 44 49 46 52 49 42 33 28 25 23 21 18 15 18 16 12 11 12 17 24 26 25 23 27 33 36 35 25 20 16 15 15 17
4 8 6 9 3 9 20 14 11 28 16 42 55 59 53 48 44 36 30 17 13 14 14 8 7 6 9 13 18 22 27 25 20 23 30 32 25 20 24 29 32 33 33 40
4 13 37 19 5 8 16 6 6 65 14 47 66 60 53 42 35 28 27 23 16 9 4 2 7 11 15 21 25 28 28 23 21 29 33 18 20 23 31 31 30 36 40 39
6 22 30 35 21 12 15 17 25 34 22 42 59 56 46 39 37 32 29 24 23 15 11 6 5 14 21 26 29 31 29 24 21 28 22 25 24 21 30 29 28 35 36 31
11 32 20 19 16 21 29 26 21 31 37 36 40 48 41 40 39 38 37 28 21 11 8 2 6 12 21 28 32 33 30 26 25 22 29 30 33 25 28 26 27 32 24 30
12 9 15 11 13 15 29 17 18 31 37 39 35 40 43 42 37 32 23 11 13 9 3 4 2 11 19 23 20 24 29 23 32 22 26 34 25 37 33 26 27 30 32 34
29 16 25 23 15 20 23 22 40 40 36 36 37 35 35 31 22 20 19 12 4 14 22 25 22 22 20 22 32 19 26 25 29 39 34 23 33 29 37 33 33 27 40 28
25 35 18 34 37 41 43 43 38 36 36 38 34 31 27 25 17 5 11 15 22 23 20 19 16 21 26 25 28 19 26 27 32 30 30 37 33 37 31 31 28 37 45 29
8 18 27 35 39 29 20 28 35 32 28 26 22 16 9 3 7 16 24 16 13 21 23 15 15 18 20 27 27 29 31 21 34 31 33 39 42 38 38 32 36 42 33 38
30 26 38 42 47 41 42 44 38 35 37 25 14 2 3 14 16 13 8 4 20 18 23 26 28 26 21 13 24 41 31 30 39 31 40 35 45 39 34 41 38 35 33 29
45 45 46 49 44 45 46 43 36 29 17 15 11 13 19 17 17 17 11 17 16 21 25 24 15 20 26 37 43 36 36 36 37 40 41 44 46 38 37 34 31 26 31 33
46 49 47 49 43 38 31 24 16 12 11 13 15 13 13 13 12 11 15 22 24 27 25 25 33 33 35 25 31 37 30 27 37 46 50 48 45 40 38 32 33 31 28 27
40 38 34 32 28 23 21 16 13 18 22 22 17 10 9 10 15 19 23 27 33 35 29 22 22 27 26 26 23 31 40 47 51 48 44 39 42 32 33 28 30 34 33 29
36 34 34 33 37 39 39 35 28 22 19 12 9 12 12 13 20 22 25 29 31 27 12 30 27 26 33 38 43 53 50 40 36 40 38 35 30 31 30 28 32 32 34 37
36 37 37 34 31 28 23 20 14 9 11 10 11 12 17 21 20 26 24 29 18 20 25 21 35 36 36 46 49 54 38 39 35 33 34 31 29 31 33 33 35 40 44 42
35 31 29 28 23 16 11 8 9 14 13 14 23 18 19 19 27 27 22 27 30 21 30 33 28 32 36 40 44 34 34 35 39 35 32 33 34 34 37 42 44 41 42 43
22 22 20 12 18 18 15 17 13 21 20 20 18 16 23 13 17 25 29 29 33 37 36 33 35 30 40 30 28 31 32 31 32 32 39 41 39 44 43 40 42 45 49 51
14 11 15 20 15 15 17 16 13 25 24 20 21 15 19 27 30 27 25 25 27 26 29 27 29 33 33 28 27 31 33 36 41 41 38 39 41 46 46 46 48 53 48 45
13 12 12 21 17 18 22 27 22 23 24 22 19 22 31 33 24 28 31 32 31 30 27 27 31 35 34 35 37 38 37 36 34 37 41 45 44 46 46 48 51 47 45 44
6 13 16 17 14 22 23 24 25 27 19 24 29 31 29 29 33 25 26 29 32 35 39 41 39 42 44 45 45 44 45 46 48 48 49 50 50 51 52 49 50 46 44 43
Wind_Direction_500mb
290 293 299 295 278 108 95 135 151 61 93 80 110 117 111 120 105 128 142 142 140 143 154 135 175 180 163 162 181 192 197 238 282 314 331 324 321 319 323 320 322 319 313 308
274 283 287 294 241 140 149 155 117 144 123 113 103 100 123 139 120 115 112 138 145 166 151 99 230 184 264 190 179 217 290 331 333 315 302 303 302 304 314 319 309 304 305 306
269 285 303 304 277 137 107 70 99 106 147 132 117 117 137 150 178 171 168 177 210 167 172 319 103 162 174 165 51 49 14 318 275 253 273 257 284 283 285 287 289 291 293 301
280 311 287 225 79 101 106 121 108 107 114 124 143 164 178 191 177 187 203 213 212 126 128 150 138 156 150 170 181 196 213 205 207 233 252 260 271 278 284 290 298 304 303 304
212 262 263 150 169 146 154 187 155 146 145 162 188 176 226 213 212 247 220 168 172 158 153 161 167 168 180 186 198 205 229 252 262 262 269 288 292 290 296 302 303 303 308 305
246 227 259 210 158 178 114 280 160 153 171 167 169 174 220 183 201 131 120 145 157 165 174 185 193 215 227 229 239 253 274 290 293 296 300 313 304 300 307 310 314 311 312 305
238 233 296 8 8 121 126 230 153 173 185 178 171 187 144 145 141 150 159 165 176 186 198 207 235 244 238 243 255 274 281 287 295 301 302 294 294 303 312 322 322 327 342 338
261 263 330 36 330 340 208 154 172 194 217 209 181 146 141 140 138 150 167 183 198 200 207 199 214 232 240 269 296 304 301 305 307 303 298 302 312 319 335 339 352 329 313 336
141 160 210 101 219 282 13 62 351 295 195 169 159 153 152 155 164 164 153 168 195 201 188 192 199 253 296 309 322 320 319 327 324 312 308 319 331 353 331 323 321 328 325 321
50 258 239 245 3 294 259 300 230 311 179 169 158 158 156 156 152 144 138 138 133 141 134 53 325 333 333 328 335 336 339 339 334 319 328 345 359 351 338 338 333 330 334 336
233 301 294 287 264 269 195 167 211 297 165 161 154 148 152 146 145 151 153 160 160 140 85 84 349 333 327 329 337 339 338 333 325 336 356 344 338 335 341 330 332 333 333 333
223 207 214 258 244 208 163 140 147 145 120 129 145 147 151 142 151 157 150 154 145 136 166 172 340 324 313 319 330 338 340 349 2 4 351 331 328 333 332 331 339 334 344 344
136 194 260 280 277 223 203 124 134 116 125 133 141 152 156 146 148 152 140 148 128 119 174 268 278 303 306 310 333 340 334 355 351 346 325 324 333 329 326 342 334 322 325 322
237 219 224 235 204 177 213 181 141 128 136 137 136 142 146 140 140 151 152 154 252 219 239 259 280 299 294 302 325 344 345 340 317 321 328 330 328 318 328 333 333 336 337 321
189 199 160 133 143 126 140 132 128 132 135 137 145 143 141 145 152 190 267 276 291 301 309 307 271 264 289 305 320 324 338 331 321 329 329 324 321 326 325 324 323 324 325 326
67 189 171 167 134 129 136 138 146 146 148 132 119 118 131 229 247 259 287 312 332 336 330 348 339 339 319 286 297 308 333 321 316 313 318 329 329 328 319 317 316 319 322 327
122 101 131 126 134 130 129 138 134 124 126 122 107 7 296 312 322 333 8 348 310 326 331 322 313 302 288 262 288 306 316 306 310 315 316 310 314 321 322 313 312 312 320 322
102 116 126 131 121 116 104 101 101 99 46 46 57 65 40 13 350 333 320 324 327 320 316 308 274 291 300 313 312 297 298 306 311 312 314 313 311 313 317 315 310 316 313 313
84 92 97 99 95 94 90 85 75 64 42 31 18 34 41 34 338 340 316 314 312 305 303 296 301 311 326 312 313 309 311 301 301 301 300 303 308 311 312 313 313 315 320 315
79 80 79 77 78 77 86 84 67 48 54 59 47 13 359 340 324 324 317 312 312 308 291 275 311 330 314 304 309 311 313 308 304 300 301 306 308 312 313 313 312 313 313 320
82 77 72 65 65 62 63 65 56 45 49 34 357 340 344 341 322 315 314 312 315 317 328 325 318 313 306 306 311 313 315 310 312 313 309 309 315 318 308 312 316 310 306 306
79 75 73 69 65 61 54 49 49 17 2 345 327 318 318 314 313 315 320 319 340 319 307 309 313 308 310 317 314 320 320 319 312 306 318 317 316 313 315 317 311 307 305 304
83 74 68 60 46 40 25 23 355 345 337 313 315 300 299 307 321 331 343 338 333 333 331 333 325 308 310 309 312 317 313 311 308 320 316 307 311 310 310 307 307 303 300 304
65 61 64 45 32 25 27 5 360 341 332 326 332 327 328 13 346 331 327 326 323 322 331 326 323 322 319 332 328 322 321 315 318 312 305 307 306 306 311 314 310 303 307 308
69 68 53 36 26 7 30 26 5 338 348 354 344 4 355 348 345 342 340 342 340 334 333 325 326 332 331 319 317 317 313 313 307 306 313 309 310 310 310 307 306 307 306 308
98 87 55 27 54 41 20 357 3 348 353 348 339 348 352 346 336 335 339 333 334 335 332 324 314 312 316 319 313 313 312 312 316 311 308 309 309 309 309 307 308 311 314 315
152 62 37 21 18 19 7 355 359 353 350 353 349 346 340 337 340 342 336 331 328 329 327 327 322 313 310 310 312 309 314 314 314 312 311 309 305 305 304 309 311 317 316 314
Wind_Speed_850mb
17 24 27 27 30 7 7 10 8 2 10 11 12 10 16 12 18 29 37 44 39 34 30 14 13 17 22 23 20 20 17 11 14 8 13 19 24 28 33 37 38 36 36 36
16 28 30 31 13 15 8 12 16 15 12 13 22 19 19 22 17 24 25 32 37 19 19 11 10 19 17 24 19 11 15 3 6 13 17 23 24 27 29 33 36 36 44 49
11 18 25 16 5 12 13 15 6 5 12 20 12 13 12 25 29 29 25 31 20 3 16 6 4 10 11 4 6 9 9 8 15 12 14 19 27 30 32 34 37 43 48 46
9 14 12 6 12 12 19 20 16 14 13 19 21 14 20 24 23 28 26 25 21 4 16 11 15 16 12 14 13 12 17 20 17 21 22 24 23 30 36 41 43 43 43 42
5 7 11 10 10 13 12 15 17 20 17 26 24 15 21 27 24 12 11 17 18 18 34 37 32 23 20 16 14 17 17 15 19 26 33 37 41 43 42 42 42 40 45 49
5 6 9 6 20 24 10 6 29 37 26 34 39 10 11 29 20 36 29 50 53 46 36 29 20 19 21 23 22 18 17 20 24 30 34 30 31 38 41 41 38 42 42 37
13 10 9 24 14 31 10 10 34 36 43 49 17 20 39 51 42 33 28 33 30 27 23 15 19 23 22 23 21 19 21 26 28 29 28 29 33 38 40 35 30 29 28 35
9 1 10 20 8 20 8 38 37 33 35 44 49 46 52 49 42 33 28 25 23 21 18 15 18 16 12 11 12 17 24 26 25 23 27 33 36 35 25 20 16 15 15 17
4 8 6 9 3 9 20 14 11 28 16 42 55 59 53 48 44 36 30 17 13 14 14 8 7 6 9 13 18 22 27 25 20 23 30 32 25 20 24 29 32 33 33 40
4 13 37 19 5 8 16 6 6 65 14 47 66 60 53 42 35 28 27 23 16 9 4 2 7 11 15 21 25 28 28 23 21 29 33 18 20 23 31 31 30 36 40 39
6 22 30 35 21 12 15 17 25 34 22 42 59 56 46 39 37 32 29 24 23 15 11 6 5 14 21 26 29 31 29 24 21 28 22 25 24 21 30 29 28 35 36 31
11 32 20 19 16 21 29 26 21 31 37 36 40 48 41 40 39 38 37 28 21 11 8 2 6 12 21 28 32 33 30 26 25 22 29 30 33 25 28 26 27 32 24 30
12 9 15 11 13 15 29 17 18 31 37 39 35 40 43 42 37 32 23 11 13 9 3 4 2 11 19 23 20 24 29 23 32 22 26 34 25 37 33 26 27 30 32 34
29 16 25 23 15 20 23 22 40 40 36 36 37 35 35 31 22 20 19 12 4 14 22 25 22 22 20 22 32 19 26 25 29 39 34 23 33 29 37 33 33 27 40 28
25 35 18 34 37 41 43 43 38 36 36 38 34 31 27 25 17 5 11 15 22 23 20 19 16 21 26 25 28 19 26 27 32 30 30 37 33 37 31 31 28 37 45 29
8 18 27 35 39 29 20 28 35 32 28 26 22 16 9 3 7 16 24 16 13 21 23 15 15 18 20 27 27 29 31 21 34 31 33 39 42 38 38 32 36 42 33 38
30 26 38 42 47 41 42 44 38 35 37 25 14 2 3 14 16 13 8 4 20 18 23 26 28 26 21 13 24 41 31 30 39 31 40 35 45 39 34 41 38 35 33 29
45 45 46 49 44 45 46 43 36 29 17 15 11 13 19 17 17 17 11 17 16 21 25 24 15 20 26 37 43 36 36 36 37 40 41 44 46 38 37 34 31 26 31 33
46 49 47 49 43 38 31 24 16 12 11 13 15 13 13 13 12 11 15 22 24 27 25 25 33 33 35 25 31 37 30 27 37 46 50 48 45 40 38 32 33 31 28 27
40 38 34 32 28 23 21 16 13 18 22 22 17 10 9 10 15 19 23 27 33 35 29 22 22 27 26 26 23 31 40 47 51 48 44 39 42 32 33 28 30 34 33 29
36 34 34 33 37 39 39 35 28 22 19 12 9 12 12 13 20 22 25 29 31 27 12 30 27 26 33 38 43 53 50 40 36 40 38 35 30 31 30 28 32 32 34 37
36 37 37 34 31 28 23 20 14 9 11 10 11 12 17 21 20 26 24 29 18 20 25 21 35 36 36 46 49 54 38 39 35 33 34 31 29 31 33 33 35 40 44 42
35 31 29 28 23 16 11 8 9 14 13 14 23 18 19 19 27 27 22 27 30 21 30 33 28 32 36 40 44 34 34 35 39 35 32 33 34 34 37 42 44 41 42 43
22 22 20 12 18 18 15 17 13 21 20 20 18 16 23 13 17 25 29 29 33 37 36 33 35 30 40 30 28 31 32 31 32 32 39 41 39 44 43 40 42 45 49 51
14 11 15 20 15 15 17 16 13 25 24 20 21 15 19 27 30 27 25 25 27 26 29 27 29 33 33 28 27 31 33 36 41 41 38 39 41 46 46 46 48 53 48 45
13 12 12 21 17 18 22 27 22 23 24 22 19 22 31 33 24 28 31 32 31 30 27 27 31 35 34 35 37 38 37 36 34 37 41 45 44 46 46 48 51 47 45 44
6 13 16 17 14 22 23 24 25 27 19 24 29 31 29 29 33 25 26 29 32 35 39 41 39 42 44 45 45 44 45 46 48 48 49 50 50 51 52 49 50 46 44 43
Wind_Direction_850mb
290 293 299 295 278 108 95 135 151 61 93 80 110 117 111 120 105 128 142 142 140 143 154 135 175 180 163 162 181 192 197 238 282 314 331 324 321 319 323 320 322 319 313 308
274 283 287 294 241 140 149 155 117 144 123 113 103 100 123 139 120 115 112 138 145 166 151 99 230 184 264 190 179 217 290 331 333 315 302 303 302 304 314 319 309 304 305 306
269 285 303 304 277 137 107 70 99 106 147 132 117 117 137 150 178 171 168 177 210 167 172 319 103 162 174 165 51 49 14 318 275 253 273 257 284 283 285 287 289 291 293 301
280 311 287 225 79 101 106 121 108 107 114 124 143 164 178 191 177 187 203 213 212 126 128 150 138 156 150 170 181 196 213 205 207 233 252 260 271 278 284 290 298 304 303 304
212 262 263 150 169 146 154 187 155 146 145 162 188 176 226 213 212 247 220 168 172 158 153 161 167 168 180 186 198 205 229 252 262 262 269 288 292 290 296 302 303 303 308 305
246 227 259 210 158 178 114 280 160 153 171 167 169 174 220 183 201 131 120 145 157 165 174 185 193 215 227 229 239 253 274 290 293 296 300 313 304 300 307 310 314 311 312 305
238 233 296 8 8 121 126 230 153 173 185 178 171 187 144 145 141 150 159 165 176 186 198 207 235 244 238 243 255 274 281 287 295 301 302 294 294 303 312 322 322 327 342 338
261 263 330 36 330 340 208 154 172 194 217 209 181 146 141 140 138 150 167 183 198 200 207 199 214 232 240 269 296 304 301 305 307 303 298 302 312 319 335 339 352 329 313 336
141 160 210 101 219 282 13 62 351 295 195 169 159 153 152 155 164 164 153 168 195 201 188 192 199 253 296 309 322 320 319 327 324 312 308 319 331 353 331 323 321 328 325 321
50 258 239 245 3 294 259 300 230 311 179 169 158 158 156 156 152 144 138 138 133 141 134 53 325 333 333 328 335 336 339 339 334 319 328 345 359 351 338 338 333 330 334 336
233 301 294 287 264 269 195 167 211 297 165 161 154 148 152 146 145 151 153 160 160 140 85 84 349 333 327 329 337 339 338 333 325 336 356 344 338 335 341 330 332 333 333 333
223 207 214 258 244 208 163 140 147 145 120 129 145 147 151 142 151 157 150 154 145 136 166 172 340 324 313 319 330 338 340 349 2 4 351 331 328 333 332 331 339 334 344 344
136 194 260 280 277 223 203 124 134 116 125 133 141 152 156 146 148 152 140 148 128 119 174 268 278 303 306 310 333 340 334 355 351 346 325 324 333 329 326 342 334 322 325 322
237 219 224 235 204 177 213 181 141 128 136 137 136 142 146 140 140 151 152 154 252 219 239 259 280 299 294 302 325 344 345 340 317 321 328 330 328 318 328 333 333 336 337 321
189 199 160 133 143 126 140 132 128 132 135 137 145 143 141 145 152 190 267 276 291 301 309 307 271 264 289 305 320 324 338 331 321 329 329 324 321 326 325 324 323 324 325 326
67 189 171 167 134 129 136 138 146 146 148 132 119 118 131 229 247 259 287 312 332 336 330 348 339 339 319 286 297 308 333 321 316 313 318 329 329 328 319 317 316 319 322 327
122 101 131 126 134 130 129 138 134 124 126 122 107 7 296 312 322 333 8 348 310 326 331 322 313 302 288 262 288 306 316 306 310 315 316 310 314 321 322 313 312 312 320 322
102 116 126 131 121 116 104 101 101 99 46 46 57 65 40 13 350 333 320 324 327 320 316 308 274 291 300 313 312 297 298 306 311 312 314 313 311 313 317 315 310 316 313 313
84 92 97 99 95 94 90 85 75 64 42 31 18 34 41 34 338 340 316 314 312 305 303 296 301 311 326 312 313 309 311 301 301 301 300 303 308 311 312 313 313 315 320 315
79 80 79 77 78 77 86 84 67 48 54 59 47 13 359 340 324 324 317 312 312 308 291 275 311 330 314 304 309 311 313 308 304 300 301 306 308 312 313 313 312 313 313 320
82 77 72 65 65 62 63 65 56 45 49 34 357 340 344 341 322 315 314 312 315 317 328 325 318 313 306 306 311 313 315 310 312 313 309 309 315 318 308 312 316 310 306 306
79 75 73 69 65 61 54 49 49 17 2 345 327 318 318 314 313 315 320 319 340 319 307 309 313 308 310 317 314 320 320 319 312 306 318 317 316 313 315 317 311 307 305 304
83 74 68 60 46 40 25 23 355 345 337 313 315 300 299 307 321 331 343 338 333 333 331 333 325 308 310 309 312 317 313 311 308 320 316 307 311 310 310 307 307 303 300 304
65 61 64 45 32 25 27 5 360 341 332 326 332 327 328 13 346 331 327 326 323 322 331 326 323 322 319 332 328 322 321 315 318 312 305 307 306 306 311 314 310 303 307 308
69 68 53 36 26 7 30 26 5 338 348 354 344 4 355 348 345 342 340 342 340 334 333 325 326 332 331 319 317 317 313 313 307 306 313 309 310 310 310 307 306 307 306 308
98 87 55 27 54 41 20 357 3 348 353 348 339 348 352 346 336 335 339 333 334 335 332 324 314 312 316 319 313 313 312 312 316 311 308 309 309 309 309 307 308 311 314 315
152 62 37 21 18 19 7 355 359 353 350 353 349 346 340 337 340 342 336 331 328 329 327 327 322 313 310 310 312 309 314 314 314 312 311 309 305 305 304 309 311 317 316 314